Weather in Voshod

Russia / Republic of Crimea     44°30′48″N   34°13′03″E
temp.,
°C
wind,
m/s
gust,
m/s
humid.,
%
clouds,
%
prec.,
mm/h
press.,
hPa
HPBL,
m
31 july, sat
sat3100:00+24nw44670 0.0 101038
03:00+23nw44680 0.0 101034
06:00+23nnw33680 0.0 101033
09:00+25e33620 0.0 1011409
12:00+25se336917 0.1 1011621
15:00+24ssw237031 0.2 1011433
18:00+26s22669 0.0 1011201
21:00+25wnw127029 0.0 101114
1 august, sun
sun100:00+25wnw22660 0.0 101217
03:00+24nnw32640 0.0 101217
06:00+24n33620 0.0 101222
09:00+26e23570 0.0 1012494
12:00+26se225712 0.0 1013646
15:00+25sw235729 0.0 1012347
18:00+27wsw246111 0.0 1011436
21:00+25nnw44640 0.0 101228
2 august, mon
mon200:00+25nw54600 0.0 101125
03:00+25nnw44610 0.0 101229
06:00+24nw43590 0.0 101218
09:00+27s12550 0.0 1012402
12:00+27s33560 0.0 1012671
15:00+27ssw45580 0.0 1012556
18:00+28wsw44580 0.0 1011351
21:00+26nw33630 0.0 101119
3 august, tue
tue300:00+25n22630 0.0 101113
03:00+25nw22640 0.0 101113
06:00+25nnw22630 0.0 101215
09:00+27ene12590 0.0 1013182
12:00+26ese22570 0.0 1013398
15:00+25wsw125588 0.0 1013463
18:00+26ese125614 0.1 1013424
21:00+25n11685 0.1 101411
4 august, wed
wed400:00+25n22660 0.0 101511
03:00+24nne33650 0.0 101526
06:00+23ne22711 0.0 101658
09:00+25ene23640 0.0 1016226
12:00+25e56696 0.0 1016610
15:00+26ese336615 0.0 1015408
18:00+25ene236630 0.0 1015283
21:00+24n44680 0.0 101543